Location: 3 Angels Observatory
(30.5437°N, 88.5068°W)
Time: 18:55:35
(UTC-05:00)

Amateur Radio Satellites - All Passes

Search period start: 30 September 2014 18:25
Search period end: 01 October 2014 18:25
Location: 3 Angels Observatory, 30.5437°N, 88.5068°W

Satellite Date Start Highest point End Downlink Frequencies (MHz)
Time Altitude Azimuth
KITSAT 1 30 Sep 18:38:41 18:45:15 27° 307° (NW) 18:51:52 435.175 FM
OPAL 30 Sep 18:51:02 18:54:57 23° 293° (WNW) 18:58:48 ?
PANSAT 30 Sep 18:57:35 19:00:42 23° 160° (SSE) 19:03:50 not established
Sapphire 30 Sep 19:03:20 19:08:28 42° 61° (ENE) 19:13:33 437.095 MHz 1200 baud AX-25 AFSK
SO-50 30 Sep 19:09:22 19:13:48 79° 116° (ESE) 19:18:20 436.795 FM
SO-67 30 Sep 19:11:47 19:15:09 58° 77° (ENE) 19:18:33 435.3500 MHz FM
PCSat 30 Sep 19:28:46 19:34:12 80° 66° (ENE) 19:39:36 145.825 MHz
UOSAT-12 30 Sep 19:43:14 19:44:31 11° 106° (ESE) 19:45:49 437.025 FM, 437.400 FM
STRAND 1 30 Sep 19:50:44 19:55:53 79° 284° (WNW) 20:01:01 ?
ISS 30 Sep 20:28:42 20:29:11 10° 125° (SE) 20:29:39 145.800 FM
HO-68 30 Sep 20:34:07 20:40:48 45° 69° (ENE) 20:47:29 435.675 MHz FM
PANSAT 30 Sep 20:36:48 20:40:35 54° 171° (S) 20:44:21 not established
Sapphire 30 Sep 20:47:42 20:51:30 20° 255° (WSW) 20:55:17 437.095 MHz 1200 baud AX-25 AFSK
UKube-1 30 Sep 20:58:29 21:01:41 21° 70° (ENE) 21:04:54 145.840 MHz, 145.915 MHz
UOSAT-12 30 Sep 21:19:36 21:24:05 55° 300° (WNW) 21:28:42 437.025 FM, 437.400 FM
ZACube-1 30 Sep 21:37:42 21:40:43 18° 69° (ENE) 21:43:47 437.345 MHz
ISS 30 Sep 22:02:17 22:05:30 47° 317° (NW) 22:08:43 145.800 FM
Oscar 11 30 Sep 22:04:06 22:08:27 82° 258° (WSW) 22:12:50 145.825 FM, Beacon 2401.500 USB
PANSAT 30 Sep 22:16:48 22:20:37 62° 184° (S) 22:24:25 not established
HO-68 30 Sep 22:22:43 22:28:32 27° 263° (W) 22:34:25 435.675 MHz FM
FUNcube-1 30 Sep 22:27:09 22:31:36 69° 77° (ENE) 22:36:10 145.950 - 145.970 MHz USB
UKube-1 30 Sep 22:34:08 22:37:41 25° 263° (W) 22:41:16 145.840 MHz, 145.915 MHz
Saudisat 1A 30 Sep 22:53:12 22:56:41 22° 55° (NE) 23:00:09 436.775 MHz
AO-40 30 Sep 23:00:36 00:39:58 30° 229° (SW) 04:17:31 Beacon 2401.320
ZACube-1 30 Sep 23:12:47 23:16:48 33° 263° (W) 23:20:56 437.345 MHz
PANSAT 30 Sep 23:57:06 00:00:34 32° 197° (SSW) 00:04:02 not established
RS-15 01 Oct 00:06:35 00:08:26 11° 99° (E) 00:10:17 29.354 - 29.394 USB, Beacon 29.352 USB
Saudisat 1A 01 Oct 00:32:28 00:36:11 27° 249° (WSW) 00:39:54 436.775 MHz
KITSAT 1 01 Oct 00:44:58 00:47:00 11° 41° (NE) 00:49:01 435.175 FM
Oscar 19 01 Oct 01:22:53 01:26:08 17° 95° (E) 01:29:21 437.125 CW, 437.150 USB
PANSAT 01 Oct 01:39:41 01:40:15 10° 207° (SSW) 01:40:49 not established
Oscar 16 01 Oct 02:02:29 02:07:27 48° 100° (E) 02:12:22 437.025 USB, Beacon 2401.1428
RS-15 01 Oct 02:07:53 02:18:58 74° 113° (ESE) 02:29:49 29.354 - 29.394 USB, Beacon 29.352 USB
AO-27 01 Oct 02:11:56 02:15:56 22° 96° (E) 02:19:55 436.795 MHz FM
AO-Echo 01 Oct 02:13:44 02:18:07 29° 98° (E) 02:22:35 ?
JAS-1B 01 Oct 02:33:42 02:39:20 53° 102° (ESE) 02:45:37 435.800 - 435.900 CW/SSB
Gurwin Techsat 1B 01 Oct 02:36:08 02:39:38 18° 95° (E) 02:43:08 435.225 FM
KITSAT 1 01 Oct 02:36:09 02:44:07 60° 61° (ENE) 02:52:02 435.175 FM
Oscar 19 01 Oct 03:00:46 03:05:35 42° 287° (WNW) 03:10:21 437.125 CW, 437.150 USB
TMSAT-1 01 Oct 03:04:12 03:08:31 25° 97° (E) 03:12:49 436.925 FM
ITAMSAT 1 01 Oct 03:11:51 03:17:05 86° 284° (WNW) 03:22:19 435.822 SSB
Uribyol 2 01 Oct 03:12:47 03:18:01 79° 284° (WNW) 03:23:13 436.500 FM
Oscar 16 01 Oct 03:43:22 03:46:20 16° 293° (WNW) 03:49:18 437.025 USB, Beacon 2401.1428
SO-50 01 Oct 03:47:14 03:50:32 18° 53° (NE) 03:53:50 436.795 FM
AO-27 01 Oct 03:50:45 03:55:25 34° 289° (WNW) 04:00:04 436.795 MHz FM
AO-Echo 01 Oct 03:52:36 03:56:42 25° 289° (WNW) 04:00:54 ?
AO-7 01 Oct 03:54:38 04:00:27 21° 96° (E) 04:06:14 29.400 - 29.500 MHz
Gurwin Techsat 1B 01 Oct 04:14:43 04:19:42 42° 287° (WNW) 04:24:40 435.225 FM
OPAL 01 Oct 04:21:12 04:25:45 32° 69° (ENE) 04:30:19 ?
RS-15 01 Oct 04:23:18 04:32:12 28° 314° (NW) 04:41:06 29.354 - 29.394 USB, Beacon 29.352 USB
JAS-1B 01 Oct 04:26:17 04:29:40 16° 293° (WNW) 04:33:13 435.800 - 435.900 CW/SSB
KITSAT 1 01 Oct 04:32:54 04:38:52 23° 256° (WSW) 04:44:49 435.175 FM
ISS 01 Oct 04:36:20 04:38:10 14° 35° (NE) 04:39:59 145.800 FM
MaSat-1 01 Oct 04:36:50 04:40:39 23° 104° (ESE) 04:44:24 437.345 MHz
TMSAT-1 01 Oct 04:43:45 04:48:20 30° 289° (WNW) 04:52:55 436.925 FM
Uosat F 01 Oct 05:13:11 05:18:15 78° 103° (ESE) 05:23:17 435.120 FM
JAS-2 01 Oct 05:14:11 05:18:40 18° 95° (E) 05:23:22 435.800 - 435.900 CW/SSB, 435.910 FM
SO-50 01 Oct 05:26:39 05:31:16 44° 247° (WSW) 05:35:53 436.795 FM
AO-7 01 Oct 05:45:25 05:53:37 67° 290° (WNW) 06:01:48 29.400 - 29.500 MHz
UOSAT-12 01 Oct 05:54:57 05:58:58 27° 56° (NE) 06:02:55 437.025 FM, 437.400 FM
OPAL 01 Oct 06:00:24 06:04:33 24° 262° (W) 06:08:44 ?
Hamsat 01 Oct 06:04:17 06:07:49 26° 97° (E) 06:11:20 145.90 MHz
ISS 01 Oct 06:11:50 06:15:02 47° 229° (SW) 06:18:13 145.800 FM
MaSat-1 01 Oct 06:12:39 06:16:57 30° 296° (WNW) 06:21:08 437.345 MHz
JAS-2 01 Oct 06:56:59 07:03:50 70° 285° (WNW) 07:11:24 435.800 - 435.900 CW/SSB, 435.910 FM
STRAND 1 01 Oct 07:00:59 07:06:04 84° 76° (ENE) 07:11:11 ?
UOSAT-12 01 Oct 07:35:11 07:38:58 25° 250° (WSW) 07:42:41 437.025 FM, 437.400 FM
Hamsat 01 Oct 07:40:44 07:43:32 18° 290° (WNW) 07:46:21 145.90 MHz
AO-7 01 Oct 07:43:31 07:44:51 10° 307° (NW) 07:46:11 29.400 - 29.500 MHz
Sapphire 01 Oct 08:00:12 08:01:44 11° 103° (ESE) 08:03:16 437.095 MHz 1200 baud AX-25 AFSK
SO-67 01 Oct 08:13:34 08:16:53 47° 284° (WNW) 08:20:12 435.3500 MHz FM
PCSat 01 Oct 08:22:52 08:27:03 23° 106° (ESE) 08:31:14 145.825 MHz
RS-15 01 Oct 09:07:16 09:11:05 12° 29° (NNE) 09:14:56 29.354 - 29.394 USB, Beacon 29.352 USB
Sapphire 01 Oct 09:39:08 09:44:29 68° 296° (WNW) 09:49:53 437.095 MHz 1200 baud AX-25 AFSK
HO-68 01 Oct 09:54:53 10:02:06 79° 104° (ESE) 10:09:17 435.675 MHz FM
Oscar 11 01 Oct 09:57:52 10:01:34 27° 97° (E) 10:05:13 145.825 FM, Beacon 2401.500 USB
PCSat 01 Oct 10:05:16 10:10:11 35° 300° (WNW) 10:15:08 145.825 MHz
FUNcube-1 01 Oct 10:22:59 10:26:24 21° 95° (E) 10:29:44 145.950 - 145.970 MHz USB
UKube-1 01 Oct 10:26:58 10:31:21 85° 102° (ESE) 10:35:43 145.840 MHz, 145.915 MHz
ZACube-1 01 Oct 11:07:18 11:11:50 77° 101° (ESE) 11:16:14 437.345 MHz
RS-15 01 Oct 11:16:13 11:26:59 50° 56° (ENE) 11:38:09 29.354 - 29.394 USB, Beacon 29.352 USB
Oscar 11 01 Oct 11:34:31 11:37:30 19° 290° (WNW) 11:40:29 145.825 FM, Beacon 2401.500 USB
HO-68 01 Oct 11:44:58 11:48:56 16° 299° (WNW) 11:52:53 435.675 MHz FM
FUNcube-1 01 Oct 11:58:58 12:02:41 26° 289° (WNW) 12:06:19 145.950 - 145.970 MHz USB
Oscar 19 01 Oct 12:35:07 12:37:55 15° 66° (ENE) 12:40:44 437.125 CW, 437.150 USB
Saudisat 1A 01 Oct 12:54:40 12:57:56 21° 110° (ESE) 13:01:12 436.775 MHz
JAS-1B 01 Oct 13:13:08 13:19:44 31° 71° (ENE) 13:25:26 435.800 - 435.900 CW/SSB
Oscar 16 01 Oct 13:13:56 13:18:44 40° 72° (ENE) 13:23:33 437.025 USB, Beacon 2401.1428
AO-Echo 01 Oct 13:22:27 13:25:43 19° 69° (ENE) 13:29:00 ?
AO-27 01 Oct 13:25:12 13:28:50 20° 68° (ENE) 13:32:28 436.795 MHz FM
RS-15 01 Oct 13:28:54 13:39:02 40° 253° (WSW) 13:49:36 29.354 - 29.394 USB, Beacon 29.352 USB
Gurwin Techsat 1B 01 Oct 13:52:20 13:55:38 17° 67° (ENE) 13:58:56 435.225 FM
Oscar 19 01 Oct 14:11:43 14:16:46 52° 260° (W) 14:21:50 437.125 CW, 437.150 USB
TMSAT-1 01 Oct 14:19:51 14:23:55 23° 69° (ENE) 14:28:01 436.925 FM
ITAMSAT 1 01 Oct 14:24:12 14:29:21 81° 76° (ENE) 14:34:33 435.822 SSB
Uribyol 2 01 Oct 14:24:57 14:30:07 88° 77° (ENE) 14:35:21 436.500 FM
Saudisat 1A 01 Oct 14:33:30 14:37:17 28° 303° (WNW) 14:41:06 436.775 MHz
AO-7 01 Oct 14:48:57 14:54:08 19° 58° (ENE) 14:59:19 29.400 - 29.500 MHz
Oscar 16 01 Oct 14:54:37 14:58:09 18° 265° (W) 15:01:42 437.025 USB, Beacon 2401.1428
AO-Echo 01 Oct 15:00:06 15:04:15 31° 262° (W) 15:08:25 ?
JAS-1B 01 Oct 15:02:40 15:10:08 40° 259° (W) 15:16:31 435.800 - 435.900 CW/SSB
AO-27 01 Oct 15:03:14 15:08:01 38° 261° (W) 15:12:50 436.795 MHz FM
KITSAT 1 01 Oct 15:08:08 15:11:13 13° 101° (E) 15:14:18 435.175 FM
Gurwin Techsat 1B 01 Oct 15:30:05 15:35:10 47° 260° (W) 15:40:16 435.225 FM
TMSAT-1 01 Oct 15:58:52 16:03:35 33° 262° (W) 16:08:21 436.925 FM
MaSat-1 01 Oct 16:09:49 16:12:26 27° 255° (WSW) 16:14:47 437.345 MHz
Uosat F 01 Oct 16:20:53 16:25:46 59° 74° (ENE) 16:30:41 435.120 FM
AO-7 01 Oct 16:37:38 16:45:57 80° 254° (WSW) 16:54:16 29.400 - 29.500 MHz
OPAL 01 Oct 16:38:41 16:40:51 13° 95° (E) 16:43:01 ?
Oscar 10/S400 01 Oct 16:41:23 16:59:59 70° 161° (SSE) 17:40:44 145.825 - 145.975 CW/USB, Beacon 145.810 USB
Hamsat 01 Oct 16:55:01 16:55:43 10° 68° (ENE) 16:56:25 145.90 MHz
KITSAT 1 01 Oct 16:57:24 17:05:30 88° 114° (ESE) 17:13:37 435.175 FM
JAS-2 01 Oct 17:05:49 17:09:50 23° 68° (ENE) 17:13:56 435.800 - 435.900 CW/SSB, 435.910 FM
SO-50 01 Oct 17:57:28 18:00:21 17° 109° (ESE) 18:03:16 436.795 FM
Uosat F 01 Oct 18:03:26 18:04:50 11° 267° (W) 18:06:13 435.120 FM
OPAL 01 Oct 18:15:03 18:19:58 53° 288° (WNW) 18:24:49 ?
